<?xml version="1.0" encoding="UTF-8" standalone="no" ?>
<gpx xmlns="http://www.topografix.com/GPX/1/1" xmlns:xsi="http://www.w3.org/2001/XMLSchema-instance" xsi:schemaLocation="http://www.topografix.com/GPX/1/1 http://www.topografix.com/GPX/1/1/gpx.xsd" version="1.1" creator="VisuGPX - https://www.visugpx.com">
  <metadata>
    <name>4. Châteaux Franco-Allemand Partie 2 02_08_20</name>
    <desc><![CDATA[Avec :
- Florent
- Noah
- Nicolas
- Julien
- Anthony]]></desc>
  </metadata>
  <wpt lat="49.04668" lon="7.67994">
    <ele>312</ele>
    <name><![CDATA[Dodo]]></name>
  </wpt>
  <wpt lat="49.03951" lon="7.69646">
    <ele>319</ele>
    <name><![CDATA[Dodo]]></name>
  </wpt>
  <trk>
    <name><![CDATA[Randonnée du 02/08/2020 à 07:52]]></name>
    <trkseg>
      <trkpt lat="49.03708" lon="7.68123">
        <ele>293</ele>
        <time>2020-08-02T07:52:00+02:00</time>
      </trkpt>
      <trkpt lat="49.03716" lon="7.68155">
        <ele>294</ele>
        <time>2020-08-02T07:52:00+02:00</time>
      </trkpt>
      <trkpt lat="49.03719" lon="7.6819">
        <ele>297</ele>
        <time>2020-08-02T07:54:08+02:00</time>
      </trkpt>
      <trkpt lat="49.03709" lon="7.68222">
        <ele>295</ele>
        <time>2020-08-02T07:54:08+02:00</time>
      </trkpt>
      <trkpt lat="49.03732" lon="7.68221">
        <ele>295</ele>
        <time>2020-08-02T07:54:08+02:00</time>
      </trkpt>
      <trkpt lat="49.03749" lon="7.68197">
        <ele>294</ele>
        <time>2020-08-02T07:54:08+02:00</time>
      </trkpt>
      <trkpt lat="49.03766" lon="7.68173">
        <ele>293</ele>
        <time>2020-08-02T07:56:16+02:00</time>
      </trkpt>
      <trkpt lat="49.03786" lon="7.68154">
        <ele>292</ele>
        <time>2020-08-02T07:56:16+02:00</time>
      </trkpt>
      <trkpt lat="49.03806" lon="7.68141">
        <ele>293</ele>
        <time>2020-08-02T07:56:16+02:00</time>
      </trkpt>
      <trkpt lat="49.03828" lon="7.68132">
        <ele>300</ele>
        <time>2020-08-02T07:56:16+02:00</time>
      </trkpt>
      <trkpt lat="49.03852" lon="7.68127">
        <ele>306</ele>
        <time>2020-08-02T07:56:16+02:00</time>
      </trkpt>
      <trkpt lat="49.03873" lon="7.68114">
        <ele>310</ele>
        <time>2020-08-02T07:56:16+02:00</time>
      </trkpt>
      <trkpt lat="49.03895" lon="7.68101">
        <ele>307</ele>
        <time>2020-08-02T07:56:16+02:00</time>
      </trkpt>
      <trkpt lat="49.03918" lon="7.6809">
        <ele>306</ele>
        <time>2020-08-02T07:56:16+02:00</time>
      </trkpt>
      <trkpt lat="49.0394" lon="7.68083">
        <ele>302</ele>
        <time>2020-08-02T07:58:24+02:00</time>
      </trkpt>
      <trkpt lat="49.03963" lon="7.68081">
        <ele>304</ele>
        <time>2020-08-02T07:58:24+02:00</time>
      </trkpt>
      <trkpt lat="49.03986" lon="7.68078">
        <ele>305</ele>
        <time>2020-08-02T07:58:24+02:00</time>
      </trkpt>
      <trkpt lat="49.04009" lon="7.6807">
        <ele>304</ele>
        <time>2020-08-02T07:58:24+02:00</time>
      </trkpt>
      <trkpt lat="49.04031" lon="7.68062">
        <ele>305</ele>
        <time>2020-08-02T07:58:24+02:00</time>
      </trkpt>
      <trkpt lat="49.04054" lon="7.68056">
        <ele>305</ele>
        <time>2020-08-02T07:58:24+02:00</time>
      </trkpt>
      <trkpt lat="49.04078" lon="7.68059">
        <ele>309</ele>
        <time>2020-08-02T08:00:32+02:00</time>
      </trkpt>
      <trkpt lat="49.041" lon="7.68058">
        <ele>310</ele>
        <time>2020-08-02T08:00:32+02:00</time>
      </trkpt>
      <trkpt lat="49.04121" lon="7.68078">
        <ele>309</ele>
        <time>2020-08-02T08:00:32+02:00</time>
      </trkpt>
      <trkpt lat="49.04142" lon="7.6809">
        <ele>311</ele>
        <time>2020-08-02T08:00:32+02:00</time>
      </trkpt>
      <trkpt lat="49.04164" lon="7.68106">
        <ele>315</ele>
        <time>2020-08-02T08:00:32+02:00</time>
      </trkpt>
      <trkpt lat="49.04186" lon="7.6811">
        <ele>310</ele>
        <time>2020-08-02T08:00:32+02:00</time>
      </trkpt>
      <trkpt lat="49.04207" lon="7.68126">
        <ele>308</ele>
        <time>2020-08-02T08:00:32+02:00</time>
      </trkpt>
      <trkpt lat="49.04227" lon="7.6814">
        <ele>305</ele>
        <time>2020-08-02T08:02:40+02:00</time>
      </trkpt>
      <trkpt lat="49.04251" lon="7.68143">
        <ele>310</ele>
        <time>2020-08-02T08:02:40+02:00</time>
      </trkpt>
      <trkpt lat="49.04274" lon="7.68148">
        <ele>313</ele>
        <time>2020-08-02T08:02:40+02:00</time>
      </trkpt>
      <trkpt lat="49.04296" lon="7.68155">
        <ele>314</ele>
        <time>2020-08-02T08:02:40+02:00</time>
      </trkpt>
      <trkpt lat="49.04317" lon="7.68168">
        <ele>316</ele>
        <time>2020-08-02T08:02:40+02:00</time>
      </trkpt>
      <trkpt lat="49.04339" lon="7.68179">
        <ele>313</ele>
        <time>2020-08-02T08:02:40+02:00</time>
      </trkpt>
      <trkpt lat="49.04361" lon="7.68192">
        <ele>309</ele>
        <time>2020-08-02T08:02:40+02:00</time>
      </trkpt>
      <trkpt lat="49.04383" lon="7.68204">
        <ele>307</ele>
        <time>2020-08-02T08:04:48+02:00</time>
      </trkpt>
      <trkpt lat="49.04405" lon="7.68213">
        <ele>306</ele>
        <time>2020-08-02T08:04:48+02:00</time>
      </trkpt>
      <trkpt lat="49.04427" lon="7.68223">
        <ele>313</ele>
        <time>2020-08-02T08:04:48+02:00</time>
      </trkpt>
      <trkpt lat="49.04451" lon="7.68228">
        <ele>321</ele>
        <time>2020-08-02T08:04:48+02:00</time>
      </trkpt>
      <trkpt lat="49.04473" lon="7.68232">
        <ele>327</ele>
        <time>2020-08-02T08:04:48+02:00</time>
      </trkpt>
      <trkpt lat="49.04492" lon="7.68251">
        <ele>328</ele>
        <time>2020-08-02T08:04:48+02:00</time>
      </trkpt>
      <trkpt lat="49.04514" lon="7.68262">
        <ele>329</ele>
        <time>2020-08-02T08:06:56+02:00</time>
      </trkpt>
      <trkpt lat="49.04537" lon="7.68268">
        <ele>327</ele>
        <time>2020-08-02T08:06:56+02:00</time>
      </trkpt>
      <trkpt lat="49.04559" lon="7.68281">
        <ele>331</ele>
        <time>2020-08-02T08:06:56+02:00</time>
      </trkpt>
      <trkpt lat="49.04582" lon="7.68296">
        <ele>331</ele>
        <time>2020-08-02T08:06:56+02:00</time>
      </trkpt>
      <trkpt lat="49.04605" lon="7.68306">
        <ele>335</ele>
        <time>2020-08-02T08:06:56+02:00</time>
      </trkpt>
      <trkpt lat="49.04628" lon="7.68295">
        <ele>333</ele>
        <time>2020-08-02T08:06:56+02:00</time>
      </trkpt>
      <trkpt lat="49.0464" lon="7.68265">
        <ele>329</ele>
        <time>2020-08-02T08:06:56+02:00</time>
      </trkpt>
      <trkpt lat="49.0465" lon="7.68234">
        <ele>327</ele>
        <time>2020-08-02T08:06:56+02:00</time>
      </trkpt>
      <trkpt lat="49.04659" lon="7.68202">
        <ele>325</ele>
        <time>2020-08-02T08:09:04+02:00</time>
      </trkpt>
      <trkpt lat="49.04655" lon="7.68166">
        <ele>319</ele>
        <time>2020-08-02T08:09:04+02:00</time>
      </trkpt>
      <trkpt lat="49.04648" lon="7.68132">
        <ele>313</ele>
        <time>2020-08-02T08:09:04+02:00</time>
      </trkpt>
      <trkpt lat="49.04654" lon="7.68097">
        <ele>311</ele>
        <time>2020-08-02T08:09:04+02:00</time>
      </trkpt>
      <trkpt lat="49.04657" lon="7.68063">
        <ele>308</ele>
        <time>2020-08-02T08:09:04+02:00</time>
      </trkpt>
      <trkpt lat="49.04663" lon="7.68028">
        <ele>308</ele>
        <time>2020-08-02T08:11:12+02:00</time>
      </trkpt>
      <trkpt lat="49.04668" lon="7.67994">
        <ele>312</ele>
        <time>2020-08-02T08:11:12+02:00</time>
      </trkpt>
      <trkpt lat="49.04674" lon="7.67961">
        <ele>330</ele>
        <time>2020-08-02T08:11:12+02:00</time>
      </trkpt>
      <trkpt lat="49.04686" lon="7.67931">
        <ele>330</ele>
        <time>2020-08-02T08:13:20+02:00</time>
      </trkpt>
      <trkpt lat="49.04673" lon="7.67901">
        <ele>333</ele>
        <time>2020-08-02T08:13:20+02:00</time>
      </trkpt>
      <trkpt lat="49.04658" lon="7.67875">
        <ele>337</ele>
        <time>2020-08-02T08:13:20+02:00</time>
      </trkpt>
      <trkpt lat="49.04642" lon="7.67849">
        <ele>337</ele>
        <time>2020-08-02T08:13:20+02:00</time>
      </trkpt>
      <trkpt lat="49.04628" lon="7.67821">
        <ele>329</ele>
        <time>2020-08-02T08:13:20+02:00</time>
      </trkpt>
      <trkpt lat="49.0461" lon="7.67798">
        <ele>329</ele>
        <time>2020-08-02T08:13:20+02:00</time>
      </trkpt>
      <trkpt lat="49.0459" lon="7.67778">
        <ele>328</ele>
        <time>2020-08-02T08:13:20+02:00</time>
      </trkpt>
      <trkpt lat="49.04575" lon="7.67751">
        <ele>325</ele>
        <time>2020-08-02T08:15:28+02:00</time>
      </trkpt>
      <trkpt lat="49.04561" lon="7.67722">
        <ele>326</ele>
        <time>2020-08-02T08:15:28+02:00</time>
      </trkpt>
      <trkpt lat="49.04547" lon="7.67695">
        <ele>327</ele>
        <time>2020-08-02T08:15:28+02:00</time>
      </trkpt>
      <trkpt lat="49.04542" lon="7.6766">
        <ele>328</ele>
        <time>2020-08-02T08:15:28+02:00</time>
      </trkpt>
      <trkpt lat="49.04527" lon="7.6763">
        <ele>333</ele>
        <time>2020-08-02T08:15:28+02:00</time>
      </trkpt>
      <trkpt lat="49.04515" lon="7.676">
        <ele>337</ele>
        <time>2020-08-02T08:15:28+02:00</time>
      </trkpt>
      <trkpt lat="49.0451" lon="7.67566">
        <ele>339</ele>
        <time>2020-08-02T08:15:28+02:00</time>
      </trkpt>
      <trkpt lat="49.04499" lon="7.67535">
        <ele>341</ele>
        <time>2020-08-02T08:17:36+02:00</time>
      </trkpt>
      <trkpt lat="49.04495" lon="7.675">
        <ele>341</ele>
        <time>2020-08-02T08:17:36+02:00</time>
      </trkpt>
      <trkpt lat="49.04492" lon="7.67466">
        <ele>340</ele>
        <time>2020-08-02T08:17:36+02:00</time>
      </trkpt>
      <trkpt lat="49.04489" lon="7.67432">
        <ele>341</ele>
        <time>2020-08-02T08:17:36+02:00</time>
      </trkpt>
      <trkpt lat="49.04501" lon="7.67403">
        <ele>338</ele>
        <time>2020-08-02T08:17:36+02:00</time>
      </trkpt>
      <trkpt lat="49.04497" lon="7.67368">
        <ele>345</ele>
        <time>2020-08-02T08:19:44+02:00</time>
      </trkpt>
      <trkpt lat="49.04517" lon="7.67351">
        <ele>362</ele>
        <time>2020-08-02T08:24:00+02:00</time>
      </trkpt>
      <trkpt lat="49.04526" lon="7.6732">
        <ele>364</ele>
        <time>2020-08-02T08:24:00+02:00</time>
      </trkpt>
      <trkpt lat="49.04538" lon="7.6729">
        <ele>368</ele>
        <time>2020-08-02T08:24:00+02:00</time>
      </trkpt>
      <trkpt lat="49.04552" lon="7.67263">
        <ele>366</ele>
        <time>2020-08-02T08:26:08+02:00</time>
      </trkpt>
      <trkpt lat="49.04568" lon="7.67233">
        <ele>374</ele>
        <time>2020-08-02T08:26:08+02:00</time>
      </trkpt>
      <trkpt lat="49.04572" lon="7.67199">
        <ele>382</ele>
        <time>2020-08-02T08:26:08+02:00</time>
      </trkpt>
      <trkpt lat="49.04591" lon="7.67218">
        <ele>397</ele>
        <time>2020-08-02T08:28:16+02:00</time>
      </trkpt>
      <trkpt lat="49.04592" lon="7.67184">
        <ele>409</ele>
        <time>2020-08-02T08:28:16+02:00</time>
      </trkpt>
      <trkpt lat="49.04579" lon="7.67154">
        <ele>415</ele>
        <time>2020-08-02T08:30:24+02:00</time>
      </trkpt>
      <trkpt lat="49.04595" lon="7.67129">
        <ele>411</ele>
        <time>2020-08-02T08:30:24+02:00</time>
      </trkpt>
      <trkpt lat="49.04595" lon="7.67094">
        <ele>412</ele>
        <time>2020-08-02T08:30:24+02:00</time>
      </trkpt>
      <trkpt lat="49.04583" lon="7.67065">
        <ele>445</ele>
        <time>2020-08-02T08:34:40+02:00</time>
      </trkpt>
      <trkpt lat="49.04556" lon="7.67203">
        <ele>419</ele>
        <time>2020-08-02T08:36:48+02:00</time>
      </trkpt>
      <trkpt lat="49.04574" lon="7.67114">
        <ele>419</ele>
        <time>2020-08-02T08:38:56+02:00</time>
      </trkpt>
      <trkpt lat="49.0459" lon="7.67078">
        <ele>419</ele>
        <time>2020-08-02T08:38:56+02:00</time>
      </trkpt>
      <trkpt lat="49.04599" lon="7.6703">
        <ele>421</ele>
        <time>2020-08-02T08:38:56+02:00</time>
      </trkpt>
      <trkpt lat="49.04592" lon="7.66992">
        <ele>425</ele>
        <time>2020-08-02T08:38:56+02:00</time>
      </trkpt>
      <trkpt lat="49.04595" lon="7.67028">
        <ele>426</ele>
        <time>2020-08-02T08:38:56+02:00</time>
      </trkpt>
      <trkpt lat="49.04586" lon="7.6706">
        <ele>427</ele>
        <time>2020-08-02T08:38:56+02:00</time>
      </trkpt>
      <trkpt lat="49.04553" lon="7.67072">
        <ele>426</ele>
        <time>2020-08-02T08:38:56+02:00</time>
      </trkpt>
      <trkpt lat="49.0452" lon="7.67081">
        <ele>425</ele>
        <time>2020-08-02T08:38:56+02:00</time>
      </trkpt>
      <trkpt lat="49.04541" lon="7.6711">
        <ele>425</ele>
        <time>2020-08-02T08:38:56+02:00</time>
      </trkpt>
      <trkpt lat="49.04568" lon="7.67072">
        <ele>426</ele>
        <time>2020-08-02T08:38:56+02:00</time>
      </trkpt>
      <trkpt lat="49.04586" lon="7.67047">
        <ele>423</ele>
        <time>2020-08-02T08:38:56+02:00</time>
      </trkpt>
      <trkpt lat="49.04589" lon="7.67009">
        <ele>425</ele>
        <time>2020-08-02T08:38:56+02:00</time>
      </trkpt>
      <trkpt lat="49.04581" lon="7.67042">
        <ele>431</ele>
        <time>2020-08-02T08:38:56+02:00</time>
      </trkpt>
      <trkpt lat="49.04586" lon="7.67062">
        <ele>363.5</ele>
        <time>2020-08-02T08:45:20+02:00</time>
      </trkpt>
      <trkpt lat="49.04603" lon="7.67086">
        <ele>423</ele>
        <time>2020-08-02T08:45:20+02:00</time>
      </trkpt>
      <trkpt lat="49.0462" lon="7.67109">
        <ele>432</ele>
        <time>2020-08-02T08:45:20+02:00</time>
      </trkpt>
      <trkpt lat="49.04643" lon="7.67111">
        <ele>433</ele>
        <time>2020-08-02T08:47:28+02:00</time>
      </trkpt>
      <trkpt lat="49.04666" lon="7.67112">
        <ele>433</ele>
        <time>2020-08-02T08:47:28+02:00</time>
      </trkpt>
      <trkpt lat="49.04689" lon="7.6711">
        <ele>429</ele>
        <time>2020-08-02T08:47:28+02:00</time>
      </trkpt>
      <trkpt lat="49.04712" lon="7.67112">
        <ele>426</ele>
        <time>2020-08-02T08:47:28+02:00</time>
      </trkpt>
      <trkpt lat="49.04735" lon="7.67118">
        <ele>425</ele>
        <time>2020-08-02T08:47:28+02:00</time>
      </trkpt>
      <trkpt lat="49.04751" lon="7.67146">
        <ele>429</ele>
        <time>2020-08-02T08:47:28+02:00</time>
      </trkpt>
      <trkpt lat="49.04766" lon="7.67174">
        <ele>433</ele>
        <time>2020-08-02T08:47:28+02:00</time>
      </trkpt>
      <trkpt lat="49.04776" lon="7.67205">
        <ele>435</ele>
        <time>2020-08-02T08:49:36+02:00</time>
      </trkpt>
      <trkpt lat="49.04788" lon="7.67235">
        <ele>434</ele>
        <time>2020-08-02T08:49:36+02:00</time>
      </trkpt>
      <trkpt lat="49.04801" lon="7.67265">
        <ele>439</ele>
        <time>2020-08-02T08:49:36+02:00</time>
      </trkpt>
      <trkpt lat="49.04819" lon="7.67289">
        <ele>439</ele>
        <time>2020-08-02T08:49:36+02:00</time>
      </trkpt>
      <trkpt lat="49.04825" lon="7.67323">
        <ele>444</ele>
        <time>2020-08-02T08:49:36+02:00</time>
      </trkpt>
      <trkpt lat="49.0483" lon="7.67357">
        <ele>452</ele>
        <time>2020-08-02T08:49:36+02:00</time>
      </trkpt>
      <trkpt lat="49.04838" lon="7.67389">
        <ele>450</ele>
        <time>2020-08-02T08:49:36+02:00</time>
      </trkpt>
      <trkpt lat="49.0485" lon="7.67419">
        <ele>456</ele>
        <time>2020-08-02T08:51:44+02:00</time>
      </trkpt>
      <trkpt lat="49.04866" lon="7.67447">
        <ele>455</ele>
        <time>2020-08-02T08:51:44+02:00</time>
      </trkpt>
      <trkpt lat="49.04885" lon="7.67469">
        <ele>458</ele>
        <time>2020-08-02T08:51:44+02:00</time>
      </trkpt>
      <trkpt lat="49.04901" lon="7.67495">
        <ele>457</ele>
        <time>2020-08-02T08:51:44+02:00</time>
      </trkpt>
      <trkpt lat="49.04917" lon="7.67519">
        <ele>455</ele>
        <time>2020-08-02T08:51:44+02:00</time>
      </trkpt>
      <trkpt lat="49.04895" lon="7.67508">
        <ele>454</ele>
        <time>2020-08-02T08:51:44+02:00</time>
      </trkpt>
      <trkpt lat="49.04873" lon="7.67503">
        <ele>452</ele>
        <time>2020-08-02T08:53:52+02:00</time>
      </trkpt>
      <trkpt lat="49.04872" lon="7.67537">
        <ele>451</ele>
        <time>2020-08-02T08:53:52+02:00</time>
      </trkpt>
      <trkpt lat="49.04881" lon="7.67569">
        <ele>451</ele>
        <time>2020-08-02T08:53:52+02:00</time>
      </trkpt>
      <trkpt lat="49.04896" lon="7.67595">
        <ele>454</ele>
        <time>2020-08-02T08:53:52+02:00</time>
      </trkpt>
      <trkpt lat="49.04914" lon="7.67618">
        <ele>456</ele>
        <time>2020-08-02T08:53:52+02:00</time>
      </trkpt>
      <trkpt lat="49.0493" lon="7.67644">
        <ele>465</ele>
        <time>2020-08-02T08:56:00+02:00</time>
      </trkpt>
      <trkpt lat="49.04945" lon="7.67671">
        <ele>466</ele>
        <time>2020-08-02T08:56:00+02:00</time>
      </trkpt>
      <trkpt lat="49.04964" lon="7.67693">
        <ele>470</ele>
        <time>2020-08-02T08:56:00+02:00</time>
      </trkpt>
      <trkpt lat="49.04987" lon="7.67698">
        <ele>468</ele>
        <time>2020-08-02T08:56:00+02:00</time>
      </trkpt>
      <trkpt lat="49.05007" lon="7.67715">
        <ele>472</ele>
        <time>2020-08-02T08:56:00+02:00</time>
      </trkpt>
      <trkpt lat="49.05026" lon="7.67734">
        <ele>470</ele>
        <time>2020-08-02T08:56:00+02:00</time>
      </trkpt>
      <trkpt lat="49.05043" lon="7.67756">
        <ele>472</ele>
        <time>2020-08-02T08:56:00+02:00</time>
      </trkpt>
      <trkpt lat="49.05066" lon="7.67763">
        <ele>468</ele>
        <time>2020-08-02T08:58:08+02:00</time>
      </trkpt>
      <trkpt lat="49.05086" lon="7.6778">
        <ele>464</ele>
        <time>2020-08-02T08:58:08+02:00</time>
      </trkpt>
      <trkpt lat="49.05101" lon="7.67806">
        <ele>465</ele>
        <time>2020-08-02T08:58:08+02:00</time>
      </trkpt>
      <trkpt lat="49.05121" lon="7.67826">
        <ele>468</ele>
        <time>2020-08-02T08:58:08+02:00</time>
      </trkpt>
      <trkpt lat="49.05143" lon="7.67835">
        <ele>465</ele>
        <time>2020-08-02T08:58:08+02:00</time>
      </trkpt>
      <trkpt lat="49.05163" lon="7.67852">
        <ele>460</ele>
        <time>2020-08-02T08:58:08+02:00</time>
      </trkpt>
      <trkpt lat="49.05185" lon="7.67861">
        <ele>455</ele>
        <time>2020-08-02T08:58:08+02:00</time>
      </trkpt>
      <trkpt lat="49.05208" lon="7.67871">
        <ele>466</ele>
        <time>2020-08-02T09:00:16+02:00</time>
      </trkpt>
      <trkpt lat="49.0523" lon="7.67867">
        <ele>466</ele>
        <time>2020-08-02T09:00:16+02:00</time>
      </trkpt>
      <trkpt lat="49.05253" lon="7.67878">
        <ele>468</ele>
        <time>2020-08-02T09:00:16+02:00</time>
      </trkpt>
      <trkpt lat="49.05276" lon="7.67879">
        <ele>470</ele>
        <time>2020-08-02T09:00:16+02:00</time>
      </trkpt>
      <trkpt lat="49.05297" lon="7.67866">
        <ele>469</ele>
        <time>2020-08-02T09:00:16+02:00</time>
      </trkpt>
      <trkpt lat="49.05318" lon="7.67877">
        <ele>475</ele>
        <time>2020-08-02T09:00:16+02:00</time>
      </trkpt>
      <trkpt lat="49.05334" lon="7.67902">
        <ele>479</ele>
        <time>2020-08-02T09:02:24+02:00</time>
      </trkpt>
      <trkpt lat="49.05345" lon="7.67934">
        <ele>475</ele>
        <time>2020-08-02T09:02:24+02:00</time>
      </trkpt>
      <trkpt lat="49.05356" lon="7.67963">
        <ele>475</ele>
        <time>2020-08-02T09:02:24+02:00</time>
      </trkpt>
      <trkpt lat="49.0536" lon="7.67998">
        <ele>479</ele>
        <time>2020-08-02T09:02:24+02:00</time>
      </trkpt>
      <trkpt lat="49.0537" lon="7.6803">
        <ele>486</ele>
        <time>2020-08-02T09:02:24+02:00</time>
      </trkpt>
      <trkpt lat="49.05382" lon="7.68059">
        <ele>491</ele>
        <time>2020-08-02T09:02:24+02:00</time>
      </trkpt>
      <trkpt lat="49.05394" lon="7.6809">
        <ele>492</ele>
        <time>2020-08-02T09:04:32+02:00</time>
      </trkpt>
      <trkpt lat="49.05405" lon="7.6812">
        <ele>497</ele>
        <time>2020-08-02T09:04:32+02:00</time>
      </trkpt>
      <trkpt lat="49.05416" lon="7.68151">
        <ele>492</ele>
        <time>2020-08-02T09:04:32+02:00</time>
      </trkpt>
      <trkpt lat="49.05422" lon="7.68184">
        <ele>490</ele>
        <time>2020-08-02T09:04:32+02:00</time>
      </trkpt>
      <trkpt lat="49.05433" lon="7.68219">
        <ele>492</ele>
        <time>2020-08-02T09:04:32+02:00</time>
      </trkpt>
      <trkpt lat="49.05448" lon="7.68246">
        <ele>498</ele>
        <time>2020-08-02T09:04:32+02:00</time>
      </trkpt>
      <trkpt lat="49.0546" lon="7.68276">
        <ele>505</ele>
        <time>2020-08-02T09:04:32+02:00</time>
      </trkpt>
      <trkpt lat="49.05476" lon="7.68301">
        <ele>508</ele>
        <time>2020-08-02T09:06:40+02:00</time>
      </trkpt>
      <trkpt lat="49.05488" lon="7.68331">
        <ele>507</ele>
        <time>2020-08-02T09:06:40+02:00</time>
      </trkpt>
      <trkpt lat="49.055" lon="7.68362">
        <ele>505</ele>
        <time>2020-08-02T09:06:40+02:00</time>
      </trkpt>
      <trkpt lat="49.05515" lon="7.68388">
        <ele>504</ele>
        <time>2020-08-02T09:06:40+02:00</time>
      </trkpt>
      <trkpt lat="49.05528" lon="7.68417">
        <ele>501</ele>
        <time>2020-08-02T09:06:40+02:00</time>
      </trkpt>
      <trkpt lat="49.05543" lon="7.68444">
        <ele>506</ele>
        <time>2020-08-02T09:06:40+02:00</time>
      </trkpt>
      <trkpt lat="49.05555" lon="7.68474">
        <ele>508</ele>
        <time>2020-08-02T09:06:40+02:00</time>
      </trkpt>
      <trkpt lat="49.0557" lon="7.68499">
        <ele>512</ele>
        <time>2020-08-02T09:08:48+02:00</time>
      </trkpt>
      <trkpt lat="49.05584" lon="7.68526">
        <ele>514</ele>
        <time>2020-08-02T09:08:48+02:00</time>
      </trkpt>
      <trkpt lat="49.05593" lon="7.68559">
        <ele>512</ele>
        <time>2020-08-02T09:08:48+02:00</time>
      </trkpt>
      <trkpt lat="49.0561" lon="7.68583">
        <ele>510</ele>
        <time>2020-08-02T09:08:48+02:00</time>
      </trkpt>
      <trkpt lat="49.05631" lon="7.68597">
        <ele>511</ele>
        <time>2020-08-02T09:08:48+02:00</time>
      </trkpt>
      <trkpt lat="49.0565" lon="7.68617">
        <ele>515</ele>
        <time>2020-08-02T09:08:48+02:00</time>
      </trkpt>
      <trkpt lat="49.0567" lon="7.68634">
        <ele>512</ele>
        <time>2020-08-02T09:08:48+02:00</time>
      </trkpt>
      <trkpt lat="49.05687" lon="7.68657">
        <ele>510</ele>
        <time>2020-08-02T09:10:56+02:00</time>
      </trkpt>
      <trkpt lat="49.05706" lon="7.68677">
        <ele>509</ele>
        <time>2020-08-02T09:10:56+02:00</time>
      </trkpt>
      <trkpt lat="49.05724" lon="7.68699">
        <ele>503</ele>
        <time>2020-08-02T09:10:56+02:00</time>
      </trkpt>
      <trkpt lat="49.05737" lon="7.68728">
        <ele>498</ele>
        <time>2020-08-02T09:10:56+02:00</time>
      </trkpt>
      <trkpt lat="49.05749" lon="7.68759">
        <ele>498</ele>
        <time>2020-08-02T09:13:04+02:00</time>
      </trkpt>
      <trkpt lat="49.05763" lon="7.68788">
        <ele>497</ele>
        <time>2020-08-02T09:13:04+02:00</time>
      </trkpt>
      <trkpt lat="49.05776" lon="7.68816">
        <ele>499</ele>
        <time>2020-08-02T09:13:04+02:00</time>
      </trkpt>
      <trkpt lat="49.05785" lon="7.68848">
        <ele>499</ele>
        <time>2020-08-02T09:13:04+02:00</time>
      </trkpt>
      <trkpt lat="49.05793" lon="7.68881">
        <ele>496</ele>
        <time>2020-08-02T09:13:04+02:00</time>
      </trkpt>
      <trkpt lat="49.05797" lon="7.68916">
        <ele>492</ele>
        <time>2020-08-02T09:15:12+02:00</time>
      </trkpt>
      <trkpt lat="49.05791" lon="7.68949">
        <ele>491</ele>
        <time>2020-08-02T09:15:12+02:00</time>
      </trkpt>
      <trkpt lat="49.05776" lon="7.68977">
        <ele>486</ele>
        <time>2020-08-02T09:15:12+02:00</time>
      </trkpt>
      <trkpt lat="49.05768" lon="7.69011">
        <ele>485</ele>
        <time>2020-08-02T09:15:12+02:00</time>
      </trkpt>
      <trkpt lat="49.05758" lon="7.69042">
        <ele>483</ele>
        <time>2020-08-02T09:15:12+02:00</time>
      </trkpt>
      <trkpt lat="49.05743" lon="7.69069">
        <ele>476</ele>
        <time>2020-08-02T09:15:12+02:00</time>
      </trkpt>
      <trkpt lat="49.05733" lon="7.69101">
        <ele>475</ele>
        <time>2020-08-02T09:17:20+02:00</time>
      </trkpt>
      <trkpt lat="49.05737" lon="7.69137">
        <ele>472</ele>
        <time>2020-08-02T09:17:20+02:00</time>
      </trkpt>
      <trkpt lat="49.05743" lon="7.69172">
        <ele>467</ele>
        <time>2020-08-02T09:17:20+02:00</time>
      </trkpt>
      <trkpt lat="49.05747" lon="7.69207">
        <ele>460</ele>
        <time>2020-08-02T09:17:20+02:00</time>
      </trkpt>
      <trkpt lat="49.05751" lon="7.69241">
        <ele>458</ele>
        <time>2020-08-02T09:17:20+02:00</time>
      </trkpt>
      <trkpt lat="49.05759" lon="7.69276">
        <ele>454</ele>
        <time>2020-08-02T09:19:28+02:00</time>
      </trkpt>
      <trkpt lat="49.05778" lon="7.69296">
        <ele>453</ele>
        <time>2020-08-02T09:19:28+02:00</time>
      </trkpt>
      <trkpt lat="49.05774" lon="7.6933">
        <ele>443</ele>
        <time>2020-08-02T09:23:44+02:00</time>
      </trkpt>
      <trkpt lat="49.0578" lon="7.69363">
        <ele>439</ele>
        <time>2020-08-02T09:23:44+02:00</time>
      </trkpt>
      <trkpt lat="49.05791" lon="7.69395">
        <ele>429</ele>
        <time>2020-08-02T09:25:52+02:00</time>
      </trkpt>
      <trkpt lat="49.05795" lon="7.69431">
        <ele>423</ele>
        <time>2020-08-02T09:25:52+02:00</time>
      </trkpt>
      <trkpt lat="49.05795" lon="7.69465">
        <ele>420</ele>
        <time>2020-08-02T09:25:52+02:00</time>
      </trkpt>
      <trkpt lat="49.05786" lon="7.69498">
        <ele>419</ele>
        <time>2020-08-02T09:25:52+02:00</time>
      </trkpt>
      <trkpt lat="49.05783" lon="7.69536">
        <ele>416</ele>
        <time>2020-08-02T09:25:52+02:00</time>
      </trkpt>
      <trkpt lat="49.05779" lon="7.6957">
        <ele>417</ele>
        <time>2020-08-02T09:25:52+02:00</time>
      </trkpt>
      <trkpt lat="49.05771" lon="7.69603">
        <ele>413</ele>
        <time>2020-08-02T09:32:16+02:00</time>
      </trkpt>
      <trkpt lat="49.05759" lon="7.69632">
        <ele>415</ele>
        <time>2020-08-02T09:32:16+02:00</time>
      </trkpt>
      <trkpt lat="49.05759" lon="7.69666">
        <ele>420</ele>
        <time>2020-08-02T09:32:16+02:00</time>
      </trkpt>
      <trkpt lat="49.05737" lon="7.69659">
        <ele>430</ele>
        <time>2020-08-02T09:34:24+02:00</time>
      </trkpt>
      <trkpt lat="49.05721" lon="7.69683">
        <ele>432</ele>
        <time>2020-08-02T09:34:24+02:00</time>
      </trkpt>
      <trkpt lat="49.05698" lon="7.69685">
        <ele>444</ele>
        <time>2020-08-02T09:36:32+02:00</time>
      </trkpt>
      <trkpt lat="49.05688" lon="7.69717">
        <ele>449</ele>
        <time>2020-08-02T09:36:32+02:00</time>
      </trkpt>
      <trkpt lat="49.0568" lon="7.69749">
        <ele>475</ele>
        <time>2020-08-02T09:38:40+02:00</time>
      </trkpt>
      <trkpt lat="49.05659" lon="7.69765">
        <ele>487</ele>
        <time>2020-08-02T09:38:40+02:00</time>
      </trkpt>
      <trkpt lat="49.05637" lon="7.69767">
        <ele>496</ele>
        <time>2020-08-02T09:38:40+02:00</time>
      </trkpt>
      <trkpt lat="49.05638" lon="7.69801">
        <ele>504</ele>
        <time>2020-08-02T09:40:48+02:00</time>
      </trkpt>
      <trkpt lat="49.05616" lon="7.69792">
        <ele>511</ele>
        <time>2020-08-02T09:40:48+02:00</time>
      </trkpt>
      <trkpt lat="49.05593" lon="7.69792">
        <ele>518</ele>
        <time>2020-08-02T09:42:56+02:00</time>
      </trkpt>
      <trkpt lat="49.05572" lon="7.6981">
        <ele>523</ele>
        <time>2020-08-02T09:45:04+02:00</time>
      </trkpt>
      <trkpt lat="49.05594" lon="7.69821">
        <ele>524</ele>
        <time>2020-08-02T09:49:20+02:00</time>
      </trkpt>
      <trkpt lat="49.05612" lon="7.69843">
        <ele>527</ele>
        <time>2020-08-02T09:49:20+02:00</time>
      </trkpt>
      <trkpt lat="49.05632" lon="7.69862">
        <ele>531</ele>
        <time>2020-08-02T09:49:20+02:00</time>
      </trkpt>
      <trkpt lat="49.05651" lon="7.69879">
        <ele>531</ele>
        <time>2020-08-02T09:49:20+02:00</time>
      </trkpt>
      <trkpt lat="49.05663" lon="7.6991">
        <ele>529</ele>
        <time>2020-08-02T09:51:28+02:00</time>
      </trkpt>
      <trkpt lat="49.05677" lon="7.6994">
        <ele>531</ele>
        <time>2020-08-02T09:51:28+02:00</time>
      </trkpt>
      <trkpt lat="49.05694" lon="7.69964">
        <ele>533</ele>
        <time>2020-08-02T09:51:28+02:00</time>
      </trkpt>
      <trkpt lat="49.05705" lon="7.69993">
        <ele>534</ele>
        <time>2020-08-02T09:51:28+02:00</time>
      </trkpt>
      <trkpt lat="49.05715" lon="7.70026">
        <ele>530</ele>
        <time>2020-08-02T09:51:28+02:00</time>
      </trkpt>
      <trkpt lat="49.05722" lon="7.7006">
        <ele>526</ele>
        <time>2020-08-02T09:51:28+02:00</time>
      </trkpt>
      <trkpt lat="49.05723" lon="7.70095">
        <ele>527</ele>
        <time>2020-08-02T09:51:28+02:00</time>
      </trkpt>
      <trkpt lat="49.05723" lon="7.7013">
        <ele>526</ele>
        <time>2020-08-02T09:53:36+02:00</time>
      </trkpt>
      <trkpt lat="49.05716" lon="7.70164">
        <ele>526</ele>
        <time>2020-08-02T09:53:36+02:00</time>
      </trkpt>
      <trkpt lat="49.05708" lon="7.70197">
        <ele>521</ele>
        <time>2020-08-02T09:53:36+02:00</time>
      </trkpt>
      <trkpt lat="49.05708" lon="7.70233">
        <ele>520</ele>
        <time>2020-08-02T09:53:36+02:00</time>
      </trkpt>
      <trkpt lat="49.05705" lon="7.70266">
        <ele>518</ele>
        <time>2020-08-02T09:55:44+02:00</time>
      </trkpt>
      <trkpt lat="49.05698" lon="7.70299">
        <ele>520</ele>
        <time>2020-08-02T09:55:44+02:00</time>
      </trkpt>
      <trkpt lat="49.05686" lon="7.70329">
        <ele>516</ele>
        <time>2020-08-02T09:55:44+02:00</time>
      </trkpt>
      <trkpt lat="49.05677" lon="7.70361">
        <ele>515</ele>
        <time>2020-08-02T09:57:52+02:00</time>
      </trkpt>
      <trkpt lat="49.05665" lon="7.70391">
        <ele>517</ele>
        <time>2020-08-02T09:57:52+02:00</time>
      </trkpt>
      <trkpt lat="49.05656" lon="7.70422">
        <ele>521</ele>
        <time>2020-08-02T09:57:52+02:00</time>
      </trkpt>
      <trkpt lat="49.05637" lon="7.70446">
        <ele>531</ele>
        <time>2020-08-02T10:00:00+02:00</time>
      </trkpt>
      <trkpt lat="49.05633" lon="7.7048">
        <ele>532</ele>
        <time>2020-08-02T10:00:00+02:00</time>
      </trkpt>
      <trkpt lat="49.05624" lon="7.70512">
        <ele>540</ele>
        <time>2020-08-02T10:04:16+02:00</time>
      </trkpt>
      <trkpt lat="49.05617" lon="7.70544">
        <ele>542</ele>
        <time>2020-08-02T10:04:16+02:00</time>
      </trkpt>
      <trkpt lat="49.05615" lon="7.70579">
        <ele>545</ele>
        <time>2020-08-02T10:04:16+02:00</time>
      </trkpt>
      <trkpt lat="49.05615" lon="7.70615">
        <ele>550</ele>
        <time>2020-08-02T10:04:16+02:00</time>
      </trkpt>
      <trkpt lat="49.05618" lon="7.7065">
        <ele>551</ele>
        <time>2020-08-02T10:06:24+02:00</time>
      </trkpt>
      <trkpt lat="49.05622" lon="7.70685">
        <ele>552</ele>
        <time>2020-08-02T10:06:24+02:00</time>
      </trkpt>
      <trkpt lat="49.0563" lon="7.70718">
        <ele>555</ele>
        <time>2020-08-02T10:06:24+02:00</time>
      </trkpt>
      <trkpt lat="49.05647" lon="7.7074">
        <ele>554</ele>
        <time>2020-08-02T10:08:32+02:00</time>
      </trkpt>
      <trkpt lat="49.05657" lon="7.70737">
        <ele>566</ele>
        <time>2020-08-02T10:14:56+02:00</time>
      </trkpt>
      <trkpt lat="49.0565" lon="7.7077">
        <ele>544</ele>
        <time>2020-08-02T10:14:56+02:00</time>
      </trkpt>
      <trkpt lat="49.05628" lon="7.70772">
        <ele>537</ele>
        <time>2020-08-02T10:14:56+02:00</time>
      </trkpt>
      <trkpt lat="49.05607" lon="7.70758">
        <ele>539</ele>
        <time>2020-08-02T10:17:04+02:00</time>
      </trkpt>
      <trkpt lat="49.05585" lon="7.70747">
        <ele>540</ele>
        <time>2020-08-02T10:17:04+02:00</time>
      </trkpt>
      <trkpt lat="49.05562" lon="7.7074">
        <ele>539</ele>
        <time>2020-08-02T10:17:04+02:00</time>
      </trkpt>
      <trkpt lat="49.0554" lon="7.70732">
        <ele>540</ele>
        <time>2020-08-02T10:17:04+02:00</time>
      </trkpt>
      <trkpt lat="49.05517" lon="7.70733">
        <ele>541</ele>
        <time>2020-08-02T10:17:04+02:00</time>
      </trkpt>
      <trkpt lat="49.05495" lon="7.70737">
        <ele>539</ele>
        <time>2020-08-02T10:17:04+02:00</time>
      </trkpt>
      <trkpt lat="49.05473" lon="7.70746">
        <ele>535</ele>
        <time>2020-08-02T10:17:04+02:00</time>
      </trkpt>
      <trkpt lat="49.05451" lon="7.70743">
        <ele>528</ele>
        <time>2020-08-02T10:19:12+02:00</time>
      </trkpt>
      <trkpt lat="49.05469" lon="7.70763">
        <ele>524</ele>
        <time>2020-08-02T10:19:12+02:00</time>
      </trkpt>
      <trkpt lat="49.05491" lon="7.70772">
        <ele>524</ele>
        <time>2020-08-02T10:19:12+02:00</time>
      </trkpt>
      <trkpt lat="49.05512" lon="7.70787">
        <ele>521</ele>
        <time>2020-08-02T10:19:12+02:00</time>
      </trkpt>
      <trkpt lat="49.05533" lon="7.70802">
        <ele>521</ele>
        <time>2020-08-02T10:21:20+02:00</time>
      </trkpt>
      <trkpt lat="49.05552" lon="7.70822">
        <ele>515</ele>
        <time>2020-08-02T10:21:20+02:00</time>
      </trkpt>
      <trkpt lat="49.05573" lon="7.70836">
        <ele>515</ele>
        <time>2020-08-02T10:21:20+02:00</time>
      </trkpt>
      <trkpt lat="49.05589" lon="7.7086">
        <ele>515</ele>
        <time>2020-08-02T10:21:20+02:00</time>
      </trkpt>
      <trkpt lat="49.05606" lon="7.70884">
        <ele>513</ele>
        <time>2020-08-02T10:21:20+02:00</time>
      </trkpt>
      <trkpt lat="49.05629" lon="7.70916">
        <ele>501</ele>
        <time>2020-08-02T10:23:28+02:00</time>
      </trkpt>
      <trkpt lat="49.05648" lon="7.70946">
        <ele>500</ele>
        <time>2020-08-02T10:23:28+02:00</time>
      </trkpt>
      <trkpt lat="49.05662" lon="7.70974">
        <ele>494</ele>
        <time>2020-08-02T10:23:28+02:00</time>
      </trkpt>
      <trkpt lat="49.05678" lon="7.71">
        <ele>488</ele>
        <time>2020-08-02T10:23:28+02:00</time>
      </trkpt>
      <trkpt lat="49.05699" lon="7.71016">
        <ele>484</ele>
        <time>2020-08-02T10:23:28+02:00</time>
      </trkpt>
      <trkpt lat="49.05719" lon="7.71032">
        <ele>483</ele>
        <time>2020-08-02T10:25:36+02:00</time>
      </trkpt>
      <trkpt lat="49.0574" lon="7.71016">
        <ele>480</ele>
        <time>2020-08-02T10:25:36+02:00</time>
      </trkpt>
      <trkpt lat="49.05757" lon="7.70993">
        <ele>480</ele>
        <time>2020-08-02T10:25:36+02:00</time>
      </trkpt>
      <trkpt lat="49.05776" lon="7.70971">
        <ele>478</ele>
        <time>2020-08-02T10:25:36+02:00</time>
      </trkpt>
      <trkpt lat="49.05793" lon="7.70949">
        <ele>476</ele>
        <time>2020-08-02T10:25:36+02:00</time>
      </trkpt>
      <trkpt lat="49.0581" lon="7.70925">
        <ele>471</ele>
        <time>2020-08-02T10:25:36+02:00</time>
      </trkpt>
      <trkpt lat="49.05832" lon="7.70916">
        <ele>460</ele>
        <time>2020-08-02T10:25:36+02:00</time>
      </trkpt>
      <trkpt lat="49.0584" lon="7.7095">
        <ele>452</ele>
        <time>2020-08-02T10:27:44+02:00</time>
      </trkpt>
      <trkpt lat="49.05826" lon="7.7098">
        <ele>451</ele>
        <time>2020-08-02T10:27:44+02:00</time>
      </trkpt>
      <trkpt lat="49.05822" lon="7.71015">
        <ele>439</ele>
        <time>2020-08-02T10:27:44+02:00</time>
      </trkpt>
      <trkpt lat="49.05815" lon="7.71051">
        <ele>433</ele>
        <time>2020-08-02T10:29:52+02:00</time>
      </trkpt>
      <trkpt lat="49.05805" lon="7.71083">
        <ele>430</ele>
        <time>2020-08-02T10:29:52+02:00</time>
      </trkpt>
      <trkpt lat="49.05794" lon="7.71114">
        <ele>424</ele>
        <time>2020-08-02T10:29:52+02:00</time>
      </trkpt>
      <trkpt lat="49.05784" lon="7.71146">
        <ele>422</ele>
        <time>2020-08-02T10:29:52+02:00</time>
      </trkpt>
      <trkpt lat="49.05776" lon="7.71179">
        <ele>421</ele>
        <time>2020-08-02T10:29:52+02:00</time>
      </trkpt>
      <trkpt lat="49.0577" lon="7.71212">
        <ele>422</ele>
        <time>2020-08-02T10:29:52+02:00</time>
      </trkpt>
      <trkpt lat="49.05766" lon="7.71247">
        <ele>424</ele>
        <time>2020-08-02T10:29:52+02:00</time>
      </trkpt>
      <trkpt lat="49.05766" lon="7.71282">
        <ele>411</ele>
        <time>2020-08-02T10:32:00+02:00</time>
      </trkpt>
      <trkpt lat="49.05761" lon="7.71315">
        <ele>403</ele>
        <time>2020-08-02T10:32:00+02:00</time>
      </trkpt>
      <trkpt lat="49.05749" lon="7.71346">
        <ele>400</ele>
        <time>2020-08-02T10:32:00+02:00</time>
      </trkpt>
      <trkpt lat="49.05743" lon="7.7138">
        <ele>395</ele>
        <time>2020-08-02T10:32:00+02:00</time>
      </trkpt>
      <trkpt lat="49.05755" lon="7.71409">
        <ele>397</ele>
        <time>2020-08-02T10:32:00+02:00</time>
      </trkpt>
      <trkpt lat="49.05751" lon="7.71375">
        <ele>394</ele>
        <time>2020-08-02T10:34:08+02:00</time>
      </trkpt>
      <trkpt lat="49.05763" lon="7.71405">
        <ele>402</ele>
        <time>2020-08-02T10:40:32+02:00</time>
      </trkpt>
      <trkpt lat="49.05753" lon="7.71373">
        <ele>398</ele>
        <time>2020-08-02T10:42:40+02:00</time>
      </trkpt>
      <trkpt lat="49.05751" lon="7.71339">
        <ele>394</ele>
        <time>2020-08-02T10:42:40+02:00</time>
      </trkpt>
      <trkpt lat="49.05738" lon="7.71311">
        <ele>400</ele>
        <time>2020-08-02T10:42:40+02:00</time>
      </trkpt>
      <trkpt lat="49.05726" lon="7.7128">
        <ele>399</ele>
        <time>2020-08-02T10:42:40+02:00</time>
      </trkpt>
      <trkpt lat="49.05713" lon="7.71249">
        <ele>397</ele>
        <time>2020-08-02T10:42:40+02:00</time>
      </trkpt>
      <trkpt lat="49.05701" lon="7.7122">
        <ele>398</ele>
        <time>2020-08-02T10:44:48+02:00</time>
      </trkpt>
      <trkpt lat="49.05689" lon="7.7119">
        <ele>397</ele>
        <time>2020-08-02T10:44:48+02:00</time>
      </trkpt>
      <trkpt lat="49.05674" lon="7.71161">
        <ele>398</ele>
        <time>2020-08-02T10:44:48+02:00</time>
      </trkpt>
      <trkpt lat="49.05656" lon="7.71139">
        <ele>399</ele>
        <time>2020-08-02T10:44:48+02:00</time>
      </trkpt>
      <trkpt lat="49.05636" lon="7.7112">
        <ele>403</ele>
        <time>2020-08-02T10:44:48+02:00</time>
      </trkpt>
      <trkpt lat="49.05616" lon="7.71105">
        <ele>406</ele>
        <time>2020-08-02T10:44:48+02:00</time>
      </trkpt>
      <trkpt lat="49.05598" lon="7.71083">
        <ele>410</ele>
        <time>2020-08-02T10:44:48+02:00</time>
      </trkpt>
      <trkpt lat="49.05575" lon="7.71075">
        <ele>404</ele>
        <time>2020-08-02T10:46:56+02:00</time>
      </trkpt>
      <trkpt lat="49.05554" lon="7.7106">
        <ele>404</ele>
        <time>2020-08-02T10:46:56+02:00</time>
      </trkpt>
      <trkpt lat="49.05531" lon="7.7105">
        <ele>410</ele>
        <time>2020-08-02T10:46:56+02:00</time>
      </trkpt>
      <trkpt lat="49.05511" lon="7.71067">
        <ele>413</ele>
        <time>2020-08-02T10:46:56+02:00</time>
      </trkpt>
      <trkpt lat="49.05504" lon="7.71099">
        <ele>409</ele>
        <time>2020-08-02T10:46:56+02:00</time>
      </trkpt>
      <trkpt lat="49.05495" lon="7.71133">
        <ele>406</ele>
        <time>2020-08-02T10:49:04+02:00</time>
      </trkpt>
      <trkpt lat="49.05493" lon="7.71167">
        <ele>408</ele>
        <time>2020-08-02T10:49:04+02:00</time>
      </trkpt>
      <trkpt lat="49.05494" lon="7.71203">
        <ele>404</ele>
        <time>2020-08-02T10:49:04+02:00</time>
      </trkpt>
      <trkpt lat="49.05493" lon="7.71238">
        <ele>396</ele>
        <time>2020-08-02T10:49:04+02:00</time>
      </trkpt>
      <trkpt lat="49.05491" lon="7.71273">
        <ele>397</ele>
        <time>2020-08-02T10:49:04+02:00</time>
      </trkpt>
      <trkpt lat="49.0549" lon="7.71309">
        <ele>393</ele>
        <time>2020-08-02T10:49:04+02:00</time>
      </trkpt>
      <trkpt lat="49.05484" lon="7.71344">
        <ele>393</ele>
        <time>2020-08-02T10:49:04+02:00</time>
      </trkpt>
      <trkpt lat="49.05478" lon="7.71378">
        <ele>394</ele>
        <time>2020-08-02T10:49:04+02:00</time>
      </trkpt>
      <trkpt lat="49.05481" lon="7.71413">
        <ele>400</ele>
        <time>2020-08-02T10:51:12+02:00</time>
      </trkpt>
      <trkpt lat="49.05487" lon="7.71448">
        <ele>402</ele>
        <time>2020-08-02T10:51:12+02:00</time>
      </trkpt>
      <trkpt lat="49.05493" lon="7.71483">
        <ele>395</ele>
        <time>2020-08-02T10:51:12+02:00</time>
      </trkpt>
      <trkpt lat="49.05499" lon="7.71517">
        <ele>392</ele>
        <time>2020-08-02T10:51:12+02:00</time>
      </trkpt>
      <trkpt lat="49.055" lon="7.71551">
        <ele>392</ele>
        <time>2020-08-02T10:51:12+02:00</time>
      </trkpt>
      <trkpt lat="49.05491" lon="7.71584">
        <ele>392</ele>
        <time>2020-08-02T10:51:12+02:00</time>
      </trkpt>
      <trkpt lat="49.05488" lon="7.7162">
        <ele>387</ele>
        <time>2020-08-02T10:51:12+02:00</time>
      </trkpt>
      <trkpt lat="49.05489" lon="7.71655">
        <ele>386</ele>
        <time>2020-08-02T10:53:20+02:00</time>
      </trkpt>
      <trkpt lat="49.0548" lon="7.71688">
        <ele>379</ele>
        <time>2020-08-02T10:53:20+02:00</time>
      </trkpt>
      <trkpt lat="49.05462" lon="7.7171">
        <ele>381</ele>
        <time>2020-08-02T10:53:20+02:00</time>
      </trkpt>
      <trkpt lat="49.05444" lon="7.71732">
        <ele>376</ele>
        <time>2020-08-02T10:53:20+02:00</time>
      </trkpt>
      <trkpt lat="49.05425" lon="7.71754">
        <ele>374</ele>
        <time>2020-08-02T10:53:20+02:00</time>
      </trkpt>
      <trkpt lat="49.05407" lon="7.71778">
        <ele>372</ele>
        <time>2020-08-02T10:53:20+02:00</time>
      </trkpt>
      <trkpt lat="49.05397" lon="7.7181">
        <ele>375</ele>
        <time>2020-08-02T10:53:20+02:00</time>
      </trkpt>
      <trkpt lat="49.05382" lon="7.71836">
        <ele>371</ele>
        <time>2020-08-02T10:55:28+02:00</time>
      </trkpt>
      <trkpt lat="49.05364" lon="7.7186">
        <ele>370</ele>
        <time>2020-08-02T10:55:28+02:00</time>
      </trkpt>
      <trkpt lat="49.05345" lon="7.71878">
        <ele>365</ele>
        <time>2020-08-02T10:55:28+02:00</time>
      </trkpt>
      <trkpt lat="49.0533" lon="7.71851">
        <ele>352</ele>
        <time>2020-08-02T10:55:28+02:00</time>
      </trkpt>
      <trkpt lat="49.05313" lon="7.71873">
        <ele>348</ele>
        <time>2020-08-02T10:57:36+02:00</time>
      </trkpt>
      <trkpt lat="49.05296" lon="7.71896">
        <ele>346</ele>
        <time>2020-08-02T10:57:36+02:00</time>
      </trkpt>
      <trkpt lat="49.05287" lon="7.71928">
        <ele>338</ele>
        <time>2020-08-02T10:57:36+02:00</time>
      </trkpt>
      <trkpt lat="49.05272" lon="7.71956">
        <ele>339</ele>
        <time>2020-08-02T10:57:36+02:00</time>
      </trkpt>
      <trkpt lat="49.05262" lon="7.71988">
        <ele>340</ele>
        <time>2020-08-02T10:57:36+02:00</time>
      </trkpt>
      <trkpt lat="49.05243" lon="7.72009">
        <ele>339</ele>
        <time>2020-08-02T10:57:36+02:00</time>
      </trkpt>
      <trkpt lat="49.05223" lon="7.72027">
        <ele>331</ele>
        <time>2020-08-02T10:57:36+02:00</time>
      </trkpt>
      <trkpt lat="49.05205" lon="7.72048">
        <ele>322</ele>
        <time>2020-08-02T10:59:44+02:00</time>
      </trkpt>
      <trkpt lat="49.05191" lon="7.72075">
        <ele>325</ele>
        <time>2020-08-02T10:59:44+02:00</time>
      </trkpt>
      <trkpt lat="49.05194" lon="7.7211">
        <ele>325</ele>
        <time>2020-08-02T10:59:44+02:00</time>
      </trkpt>
      <trkpt lat="49.05206" lon="7.7214">
        <ele>330</ele>
        <time>2020-08-02T10:59:44+02:00</time>
      </trkpt>
      <trkpt lat="49.05215" lon="7.72173">
        <ele>325</ele>
        <time>2020-08-02T10:59:44+02:00</time>
      </trkpt>
      <trkpt lat="49.05227" lon="7.72203">
        <ele>323</ele>
        <time>2020-08-02T10:59:44+02:00</time>
      </trkpt>
      <trkpt lat="49.05235" lon="7.72235">
        <ele>317</ele>
        <time>2020-08-02T11:01:52+02:00</time>
      </trkpt>
      <trkpt lat="49.0525" lon="7.72263">
        <ele>314</ele>
        <time>2020-08-02T11:01:52+02:00</time>
      </trkpt>
      <trkpt lat="49.05263" lon="7.72292">
        <ele>314</ele>
        <time>2020-08-02T11:01:52+02:00</time>
      </trkpt>
      <trkpt lat="49.05279" lon="7.72316">
        <ele>314</ele>
        <time>2020-08-02T11:01:52+02:00</time>
      </trkpt>
      <trkpt lat="49.05292" lon="7.72346">
        <ele>318</ele>
        <time>2020-08-02T11:01:52+02:00</time>
      </trkpt>
      <trkpt lat="49.05308" lon="7.72373">
        <ele>320</ele>
        <time>2020-08-02T11:01:52+02:00</time>
      </trkpt>
      <trkpt lat="49.05326" lon="7.72393">
        <ele>321</ele>
        <time>2020-08-02T11:01:52+02:00</time>
      </trkpt>
      <trkpt lat="49.05345" lon="7.72414">
        <ele>319</ele>
        <time>2020-08-02T11:01:52+02:00</time>
      </trkpt>
      <trkpt lat="49.05366" lon="7.72429">
        <ele>312</ele>
        <time>2020-08-02T11:04:00+02:00</time>
      </trkpt>
      <trkpt lat="49.05386" lon="7.72447">
        <ele>309</ele>
        <time>2020-08-02T11:04:00+02:00</time>
      </trkpt>
      <trkpt lat="49.05405" lon="7.72468">
        <ele>313</ele>
        <time>2020-08-02T11:04:00+02:00</time>
      </trkpt>
      <trkpt lat="49.05423" lon="7.72491">
        <ele>307</ele>
        <time>2020-08-02T11:04:00+02:00</time>
      </trkpt>
      <trkpt lat="49.05441" lon="7.72513">
        <ele>311</ele>
        <time>2020-08-02T11:04:00+02:00</time>
      </trkpt>
      <trkpt lat="49.05455" lon="7.72541">
        <ele>308</ele>
        <time>2020-08-02T11:04:00+02:00</time>
      </trkpt>
      <trkpt lat="49.05473" lon="7.72564">
        <ele>309</ele>
        <time>2020-08-02T11:06:08+02:00</time>
      </trkpt>
      <trkpt lat="49.05491" lon="7.72586">
        <ele>312</ele>
        <time>2020-08-02T11:06:08+02:00</time>
      </trkpt>
      <trkpt lat="49.05508" lon="7.72609">
        <ele>317</ele>
        <time>2020-08-02T11:06:08+02:00</time>
      </trkpt>
      <trkpt lat="49.05523" lon="7.72635">
        <ele>304</ele>
        <time>2020-08-02T11:06:08+02:00</time>
      </trkpt>
      <trkpt lat="49.05543" lon="7.72655">
        <ele>303</ele>
        <time>2020-08-02T11:06:08+02:00</time>
      </trkpt>
      <trkpt lat="49.05559" lon="7.72679">
        <ele>305</ele>
        <time>2020-08-02T11:06:08+02:00</time>
      </trkpt>
      <trkpt lat="49.05568" lon="7.72711">
        <ele>306</ele>
        <time>2020-08-02T11:06:08+02:00</time>
      </trkpt>
      <trkpt lat="49.05575" lon="7.72744">
        <ele>293</ele>
        <time>2020-08-02T11:08:16+02:00</time>
      </trkpt>
      <trkpt lat="49.05575" lon="7.72779">
        <ele>284</ele>
        <time>2020-08-02T11:08:16+02:00</time>
      </trkpt>
      <trkpt lat="49.05577" lon="7.72813">
        <ele>281</ele>
        <time>2020-08-02T11:08:16+02:00</time>
      </trkpt>
      <trkpt lat="49.05556" lon="7.72825">
        <ele>284</ele>
        <time>2020-08-02T11:10:24+02:00</time>
      </trkpt>
      <trkpt lat="49.05533" lon="7.7282">
        <ele>285</ele>
        <time>2020-08-02T11:10:24+02:00</time>
      </trkpt>
      <trkpt lat="49.05516" lon="7.72796">
        <ele>287</ele>
        <time>2020-08-02T11:10:24+02:00</time>
      </trkpt>
      <trkpt lat="49.05504" lon="7.72767">
        <ele>293</ele>
        <time>2020-08-02T11:10:24+02:00</time>
      </trkpt>
      <trkpt lat="49.0549" lon="7.72738">
        <ele>300</ele>
        <time>2020-08-02T11:10:24+02:00</time>
      </trkpt>
      <trkpt lat="49.05475" lon="7.72711">
        <ele>299</ele>
        <time>2020-08-02T11:12:32+02:00</time>
      </trkpt>
      <trkpt lat="49.05461" lon="7.72683">
        <ele>304</ele>
        <time>2020-08-02T11:12:32+02:00</time>
      </trkpt>
      <trkpt lat="49.05441" lon="7.72669">
        <ele>304</ele>
        <time>2020-08-02T11:12:32+02:00</time>
      </trkpt>
      <trkpt lat="49.05423" lon="7.72645">
        <ele>306</ele>
        <time>2020-08-02T11:12:32+02:00</time>
      </trkpt>
      <trkpt lat="49.05407" lon="7.7262">
        <ele>303</ele>
        <time>2020-08-02T11:12:32+02:00</time>
      </trkpt>
      <trkpt lat="49.05387" lon="7.72603">
        <ele>307</ele>
        <time>2020-08-02T11:12:32+02:00</time>
      </trkpt>
      <trkpt lat="49.05367" lon="7.72585">
        <ele>317</ele>
        <time>2020-08-02T11:14:40+02:00</time>
      </trkpt>
      <trkpt lat="49.0535" lon="7.72561">
        <ele>323</ele>
        <time>2020-08-02T11:14:40+02:00</time>
      </trkpt>
      <trkpt lat="49.05331" lon="7.72542">
        <ele>321</ele>
        <time>2020-08-02T11:14:40+02:00</time>
      </trkpt>
      <trkpt lat="49.05311" lon="7.72526">
        <ele>323</ele>
        <time>2020-08-02T11:14:40+02:00</time>
      </trkpt>
      <trkpt lat="49.05291" lon="7.7251">
        <ele>327</ele>
        <time>2020-08-02T11:14:40+02:00</time>
      </trkpt>
      <trkpt lat="49.0527" lon="7.72497">
        <ele>331</ele>
        <time>2020-08-02T11:16:48+02:00</time>
      </trkpt>
      <trkpt lat="49.05249" lon="7.72483">
        <ele>336</ele>
        <time>2020-08-02T11:16:48+02:00</time>
      </trkpt>
      <trkpt lat="49.05228" lon="7.72469">
        <ele>341</ele>
        <time>2020-08-02T11:16:48+02:00</time>
      </trkpt>
      <trkpt lat="49.05205" lon="7.72458">
        <ele>346</ele>
        <time>2020-08-02T11:16:48+02:00</time>
      </trkpt>
      <trkpt lat="49.05183" lon="7.72447">
        <ele>348</ele>
        <time>2020-08-02T11:16:48+02:00</time>
      </trkpt>
      <trkpt lat="49.05161" lon="7.7244">
        <ele>350</ele>
        <time>2020-08-02T11:16:48+02:00</time>
      </trkpt>
      <trkpt lat="49.05138" lon="7.72441">
        <ele>351</ele>
        <time>2020-08-02T11:18:56+02:00</time>
      </trkpt>
      <trkpt lat="49.05115" lon="7.72446">
        <ele>353</ele>
        <time>2020-08-02T11:18:56+02:00</time>
      </trkpt>
      <trkpt lat="49.05092" lon="7.7245">
        <ele>357</ele>
        <time>2020-08-02T11:18:56+02:00</time>
      </trkpt>
      <trkpt lat="49.05069" lon="7.72449">
        <ele>359</ele>
        <time>2020-08-02T11:18:56+02:00</time>
      </trkpt>
      <trkpt lat="49.05046" lon="7.72449">
        <ele>360</ele>
        <time>2020-08-02T11:18:56+02:00</time>
      </trkpt>
      <trkpt lat="49.05023" lon="7.72451">
        <ele>364</ele>
        <time>2020-08-02T11:18:56+02:00</time>
      </trkpt>
      <trkpt lat="49.05002" lon="7.72465">
        <ele>365</ele>
        <time>2020-08-02T11:21:04+02:00</time>
      </trkpt>
      <trkpt lat="49.04987" lon="7.7249">
        <ele>368</ele>
        <time>2020-08-02T11:21:04+02:00</time>
      </trkpt>
      <trkpt lat="49.04964" lon="7.7249">
        <ele>371</ele>
        <time>2020-08-02T11:21:04+02:00</time>
      </trkpt>
      <trkpt lat="49.04942" lon="7.72483">
        <ele>379</ele>
        <time>2020-08-02T11:23:12+02:00</time>
      </trkpt>
      <trkpt lat="49.0492" lon="7.72472">
        <ele>385</ele>
        <time>2020-08-02T11:23:12+02:00</time>
      </trkpt>
      <trkpt lat="49.04898" lon="7.72462">
        <ele>389</ele>
        <time>2020-08-02T11:25:20+02:00</time>
      </trkpt>
      <trkpt lat="49.04875" lon="7.72455">
        <ele>390</ele>
        <time>2020-08-02T11:25:20+02:00</time>
      </trkpt>
      <trkpt lat="49.04854" lon="7.72443">
        <ele>393</ele>
        <time>2020-08-02T11:25:20+02:00</time>
      </trkpt>
      <trkpt lat="49.04832" lon="7.72431">
        <ele>397</ele>
        <time>2020-08-02T11:25:20+02:00</time>
      </trkpt>
      <trkpt lat="49.0481" lon="7.72425">
        <ele>394</ele>
        <time>2020-08-02T11:25:20+02:00</time>
      </trkpt>
      <trkpt lat="49.04788" lon="7.72415">
        <ele>396</ele>
        <time>2020-08-02T11:25:20+02:00</time>
      </trkpt>
      <trkpt lat="49.04765" lon="7.72411">
        <ele>398</ele>
        <time>2020-08-02T11:27:28+02:00</time>
      </trkpt>
      <trkpt lat="49.04743" lon="7.72402">
        <ele>403</ele>
        <time>2020-08-02T11:27:28+02:00</time>
      </trkpt>
      <trkpt lat="49.0472" lon="7.72394">
        <ele>408</ele>
        <time>2020-08-02T11:27:28+02:00</time>
      </trkpt>
      <trkpt lat="49.04698" lon="7.72393">
        <ele>412</ele>
        <time>2020-08-02T11:27:28+02:00</time>
      </trkpt>
      <trkpt lat="49.04676" lon="7.72406">
        <ele>414</ele>
        <time>2020-08-02T11:27:28+02:00</time>
      </trkpt>
      <trkpt lat="49.04654" lon="7.72409">
        <ele>416</ele>
        <time>2020-08-02T11:27:28+02:00</time>
      </trkpt>
      <trkpt lat="49.04631" lon="7.72418">
        <ele>417</ele>
        <time>2020-08-02T11:29:36+02:00</time>
      </trkpt>
      <trkpt lat="49.04608" lon="7.72416">
        <ele>421</ele>
        <time>2020-08-02T11:29:36+02:00</time>
      </trkpt>
      <trkpt lat="49.04585" lon="7.72416">
        <ele>419</ele>
        <time>2020-08-02T11:29:36+02:00</time>
      </trkpt>
      <trkpt lat="49.04563" lon="7.72413">
        <ele>422</ele>
        <time>2020-08-02T11:29:36+02:00</time>
      </trkpt>
      <trkpt lat="49.04539" lon="7.72411">
        <ele>424</ele>
        <time>2020-08-02T11:31:44+02:00</time>
      </trkpt>
      <trkpt lat="49.04517" lon="7.72411">
        <ele>427</ele>
        <time>2020-08-02T11:31:44+02:00</time>
      </trkpt>
      <trkpt lat="49.04493" lon="7.72408">
        <ele>430</ele>
        <time>2020-08-02T11:31:44+02:00</time>
      </trkpt>
      <trkpt lat="49.04471" lon="7.72401">
        <ele>437</ele>
        <time>2020-08-02T11:31:44+02:00</time>
      </trkpt>
      <trkpt lat="49.04448" lon="7.72397">
        <ele>440</ele>
        <time>2020-08-02T11:31:44+02:00</time>
      </trkpt>
      <trkpt lat="49.04426" lon="7.7239">
        <ele>443</ele>
        <time>2020-08-02T11:31:44+02:00</time>
      </trkpt>
      <trkpt lat="49.04404" lon="7.72379">
        <ele>450</ele>
        <time>2020-08-02T11:33:52+02:00</time>
      </trkpt>
      <trkpt lat="49.04383" lon="7.72362">
        <ele>452</ele>
        <time>2020-08-02T11:33:52+02:00</time>
      </trkpt>
      <trkpt lat="49.04362" lon="7.72346">
        <ele>455</ele>
        <time>2020-08-02T11:33:52+02:00</time>
      </trkpt>
      <trkpt lat="49.04341" lon="7.72331">
        <ele>460</ele>
        <time>2020-08-02T11:33:52+02:00</time>
      </trkpt>
      <trkpt lat="49.04323" lon="7.72311">
        <ele>464</ele>
        <time>2020-08-02T11:33:52+02:00</time>
      </trkpt>
      <trkpt lat="49.0431" lon="7.72281">
        <ele>472</ele>
        <time>2020-08-02T11:36:00+02:00</time>
      </trkpt>
      <trkpt lat="49.04301" lon="7.72248">
        <ele>475</ele>
        <time>2020-08-02T11:36:00+02:00</time>
      </trkpt>
      <trkpt lat="49.04292" lon="7.72217">
        <ele>480</ele>
        <time>2020-08-02T11:36:00+02:00</time>
      </trkpt>
      <trkpt lat="49.04276" lon="7.72193">
        <ele>479</ele>
        <time>2020-08-02T11:38:08+02:00</time>
      </trkpt>
      <trkpt lat="49.04253" lon="7.72202">
        <ele>476</ele>
        <time>2020-08-02T11:38:08+02:00</time>
      </trkpt>
      <trkpt lat="49.04231" lon="7.72211">
        <ele>474</ele>
        <time>2020-08-02T11:38:08+02:00</time>
      </trkpt>
      <trkpt lat="49.04208" lon="7.7221">
        <ele>473</ele>
        <time>2020-08-02T11:38:08+02:00</time>
      </trkpt>
      <trkpt lat="49.04231" lon="7.72213">
        <ele>472</ele>
        <time>2020-08-02T11:40:16+02:00</time>
      </trkpt>
      <trkpt lat="49.04253" lon="7.72204">
        <ele>475</ele>
        <time>2020-08-02T11:40:16+02:00</time>
      </trkpt>
      <trkpt lat="49.04275" lon="7.72192">
        <ele>480</ele>
        <time>2020-08-02T11:40:16+02:00</time>
      </trkpt>
      <trkpt lat="49.04297" lon="7.72201">
        <ele>482</ele>
        <time>2020-08-02T11:40:16+02:00</time>
      </trkpt>
      <trkpt lat="49.04313" lon="7.72176">
        <ele>483</ele>
        <time>2020-08-02T11:44:32+02:00</time>
      </trkpt>
      <trkpt lat="49.0433" lon="7.7215">
        <ele>481</ele>
        <time>2020-08-02T11:44:32+02:00</time>
      </trkpt>
      <trkpt lat="49.04347" lon="7.72125">
        <ele>479</ele>
        <time>2020-08-02T11:44:32+02:00</time>
      </trkpt>
      <trkpt lat="49.04367" lon="7.72107">
        <ele>481</ele>
        <time>2020-08-02T11:46:40+02:00</time>
      </trkpt>
      <trkpt lat="49.04385" lon="7.72084">
        <ele>483</ele>
        <time>2020-08-02T11:46:40+02:00</time>
      </trkpt>
      <trkpt lat="49.04399" lon="7.72055">
        <ele>480</ele>
        <time>2020-08-02T11:46:40+02:00</time>
      </trkpt>
      <trkpt lat="49.04413" lon="7.72027">
        <ele>479</ele>
        <time>2020-08-02T11:46:40+02:00</time>
      </trkpt>
      <trkpt lat="49.04424" lon="7.71997">
        <ele>476</ele>
        <time>2020-08-02T11:46:40+02:00</time>
      </trkpt>
      <trkpt lat="49.04433" lon="7.71965">
        <ele>474</ele>
        <time>2020-08-02T11:46:40+02:00</time>
      </trkpt>
      <trkpt lat="49.04438" lon="7.71931">
        <ele>474</ele>
        <time>2020-08-02T11:46:40+02:00</time>
      </trkpt>
      <trkpt lat="49.04445" lon="7.71896">
        <ele>477</ele>
        <time>2020-08-02T11:48:48+02:00</time>
      </trkpt>
      <trkpt lat="49.0445" lon="7.71861">
        <ele>477</ele>
        <time>2020-08-02T11:48:48+02:00</time>
      </trkpt>
      <trkpt lat="49.04452" lon="7.71826">
        <ele>478</ele>
        <time>2020-08-02T11:48:48+02:00</time>
      </trkpt>
      <trkpt lat="49.04451" lon="7.71792">
        <ele>480</ele>
        <time>2020-08-02T11:48:48+02:00</time>
      </trkpt>
      <trkpt lat="49.04454" lon="7.71758">
        <ele>484</ele>
        <time>2020-08-02T11:48:48+02:00</time>
      </trkpt>
      <trkpt lat="49.04446" lon="7.71726">
        <ele>485</ele>
        <time>2020-08-02T11:48:48+02:00</time>
      </trkpt>
      <trkpt lat="49.04439" lon="7.71691">
        <ele>487</ele>
        <time>2020-08-02T11:48:48+02:00</time>
      </trkpt>
      <trkpt lat="49.04432" lon="7.71656">
        <ele>484</ele>
        <time>2020-08-02T11:50:56+02:00</time>
      </trkpt>
      <trkpt lat="49.04421" lon="7.71626">
        <ele>484</ele>
        <time>2020-08-02T11:50:56+02:00</time>
      </trkpt>
      <trkpt lat="49.04409" lon="7.71596">
        <ele>482</ele>
        <time>2020-08-02T11:50:56+02:00</time>
      </trkpt>
      <trkpt lat="49.04395" lon="7.71569">
        <ele>480</ele>
        <time>2020-08-02T11:50:56+02:00</time>
      </trkpt>
      <trkpt lat="49.0438" lon="7.71543">
        <ele>480</ele>
        <time>2020-08-02T11:50:56+02:00</time>
      </trkpt>
      <trkpt lat="49.04367" lon="7.71514">
        <ele>484</ele>
        <time>2020-08-02T11:50:56+02:00</time>
      </trkpt>
      <trkpt lat="49.04359" lon="7.71482">
        <ele>488</ele>
        <time>2020-08-02T11:53:04+02:00</time>
      </trkpt>
      <trkpt lat="49.04347" lon="7.71453">
        <ele>492</ele>
        <time>2020-08-02T11:53:04+02:00</time>
      </trkpt>
      <trkpt lat="49.04419" lon="7.71369">
        <ele>478</ele>
        <time>2020-08-02T11:55:12+02:00</time>
      </trkpt>
      <trkpt lat="49.0434" lon="7.71427">
        <ele>478</ele>
        <time>2020-08-02T11:55:12+02:00</time>
      </trkpt>
      <trkpt lat="49.04338" lon="7.71414">
        <ele>491</ele>
        <time>2020-08-02T12:03:44+02:00</time>
      </trkpt>
      <trkpt lat="49.04332" lon="7.71381">
        <ele>509</ele>
        <time>2020-08-02T12:03:44+02:00</time>
      </trkpt>
      <trkpt lat="49.04332" lon="7.71345">
        <ele>500</ele>
        <time>2020-08-02T12:05:52+02:00</time>
      </trkpt>
      <trkpt lat="49.04352" lon="7.71328">
        <ele>494</ele>
        <time>2020-08-02T12:05:52+02:00</time>
      </trkpt>
      <trkpt lat="49.04366" lon="7.71299">
        <ele>488</ele>
        <time>2020-08-02T12:05:52+02:00</time>
      </trkpt>
      <trkpt lat="49.04375" lon="7.71267">
        <ele>484</ele>
        <time>2020-08-02T12:05:52+02:00</time>
      </trkpt>
      <trkpt lat="49.04384" lon="7.71233">
        <ele>482</ele>
        <time>2020-08-02T12:08:00+02:00</time>
      </trkpt>
      <trkpt lat="49.04388" lon="7.71198">
        <ele>475</ele>
        <time>2020-08-02T12:08:00+02:00</time>
      </trkpt>
      <trkpt lat="49.04395" lon="7.71165">
        <ele>476</ele>
        <time>2020-08-02T12:08:00+02:00</time>
      </trkpt>
      <trkpt lat="49.04397" lon="7.7113">
        <ele>475</ele>
        <time>2020-08-02T12:08:00+02:00</time>
      </trkpt>
      <trkpt lat="49.04392" lon="7.71094">
        <ele>473</ele>
        <time>2020-08-02T12:08:00+02:00</time>
      </trkpt>
      <trkpt lat="49.04387" lon="7.71061">
        <ele>470</ele>
        <time>2020-08-02T12:08:00+02:00</time>
      </trkpt>
      <trkpt lat="49.04391" lon="7.71027">
        <ele>466</ele>
        <time>2020-08-02T12:08:00+02:00</time>
      </trkpt>
      <trkpt lat="49.04397" lon="7.70993">
        <ele>466</ele>
        <time>2020-08-02T12:10:08+02:00</time>
      </trkpt>
      <trkpt lat="49.04398" lon="7.70958">
        <ele>464</ele>
        <time>2020-08-02T12:10:08+02:00</time>
      </trkpt>
      <trkpt lat="49.04387" lon="7.70927">
        <ele>460</ele>
        <time>2020-08-02T12:10:08+02:00</time>
      </trkpt>
      <trkpt lat="49.04391" lon="7.70894">
        <ele>459</ele>
        <time>2020-08-02T12:10:08+02:00</time>
      </trkpt>
      <trkpt lat="49.04397" lon="7.70859">
        <ele>456</ele>
        <time>2020-08-02T12:10:08+02:00</time>
      </trkpt>
      <trkpt lat="49.04401" lon="7.70824">
        <ele>451</ele>
        <time>2020-08-02T12:10:08+02:00</time>
      </trkpt>
      <trkpt lat="49.04414" lon="7.70794">
        <ele>451</ele>
        <time>2020-08-02T12:10:08+02:00</time>
      </trkpt>
      <trkpt lat="49.04432" lon="7.70773">
        <ele>452</ele>
        <time>2020-08-02T12:12:16+02:00</time>
      </trkpt>
      <trkpt lat="49.04452" lon="7.70759">
        <ele>453</ele>
        <time>2020-08-02T12:12:16+02:00</time>
      </trkpt>
      <trkpt lat="49.04473" lon="7.70741">
        <ele>453</ele>
        <time>2020-08-02T12:12:16+02:00</time>
      </trkpt>
      <trkpt lat="49.04491" lon="7.70719">
        <ele>452</ele>
        <time>2020-08-02T12:12:16+02:00</time>
      </trkpt>
      <trkpt lat="49.04512" lon="7.70701">
        <ele>452</ele>
        <time>2020-08-02T12:12:16+02:00</time>
      </trkpt>
      <trkpt lat="49.04524" lon="7.70671">
        <ele>448</ele>
        <time>2020-08-02T12:12:16+02:00</time>
      </trkpt>
      <trkpt lat="49.04537" lon="7.70643">
        <ele>448</ele>
        <time>2020-08-02T12:14:24+02:00</time>
      </trkpt>
      <trkpt lat="49.04556" lon="7.7062">
        <ele>444</ele>
        <time>2020-08-02T12:14:24+02:00</time>
      </trkpt>
      <trkpt lat="49.04565" lon="7.70588">
        <ele>442</ele>
        <time>2020-08-02T12:14:24+02:00</time>
      </trkpt>
      <trkpt lat="49.04587" lon="7.70587">
        <ele>446</ele>
        <time>2020-08-02T12:14:24+02:00</time>
      </trkpt>
      <trkpt lat="49.04604" lon="7.70563">
        <ele>443</ele>
        <time>2020-08-02T12:16:32+02:00</time>
      </trkpt>
      <trkpt lat="49.04624" lon="7.70545">
        <ele>440</ele>
        <time>2020-08-02T12:16:32+02:00</time>
      </trkpt>
      <trkpt lat="49.04644" lon="7.70527">
        <ele>439</ele>
        <time>2020-08-02T12:16:32+02:00</time>
      </trkpt>
      <trkpt lat="49.04661" lon="7.70502">
        <ele>438</ele>
        <time>2020-08-02T12:16:32+02:00</time>
      </trkpt>
      <trkpt lat="49.04678" lon="7.70474">
        <ele>433</ele>
        <time>2020-08-02T12:18:40+02:00</time>
      </trkpt>
      <trkpt lat="49.04693" lon="7.70448">
        <ele>432</ele>
        <time>2020-08-02T12:18:40+02:00</time>
      </trkpt>
      <trkpt lat="49.04707" lon="7.70418">
        <ele>427</ele>
        <time>2020-08-02T12:18:40+02:00</time>
      </trkpt>
      <trkpt lat="49.04719" lon="7.70389">
        <ele>424</ele>
        <time>2020-08-02T12:18:40+02:00</time>
      </trkpt>
      <trkpt lat="49.04719" lon="7.70354">
        <ele>419</ele>
        <time>2020-08-02T12:20:48+02:00</time>
      </trkpt>
      <trkpt lat="49.04731" lon="7.70326">
        <ele>417</ele>
        <time>2020-08-02T12:20:48+02:00</time>
      </trkpt>
      <trkpt lat="49.04751" lon="7.70309">
        <ele>418</ele>
        <time>2020-08-02T12:20:48+02:00</time>
      </trkpt>
      <trkpt lat="49.04763" lon="7.70279">
        <ele>415</ele>
        <time>2020-08-02T12:22:56+02:00</time>
      </trkpt>
      <trkpt lat="49.04782" lon="7.70258">
        <ele>411</ele>
        <time>2020-08-02T12:22:56+02:00</time>
      </trkpt>
      <trkpt lat="49.0479" lon="7.70226">
        <ele>408</ele>
        <time>2020-08-02T12:22:56+02:00</time>
      </trkpt>
      <trkpt lat="49.04785" lon="7.70192">
        <ele>400</ele>
        <time>2020-08-02T12:25:04+02:00</time>
      </trkpt>
      <trkpt lat="49.04789" lon="7.70153">
        <ele>415</ele>
        <time>2020-08-02T12:25:04+02:00</time>
      </trkpt>
      <trkpt lat="49.04793" lon="7.70195">
        <ele>414</ele>
        <time>2020-08-02T12:35:44+02:00</time>
      </trkpt>
      <trkpt lat="49.0473" lon="7.70184">
        <ele>417</ele>
        <time>2020-08-02T12:35:44+02:00</time>
      </trkpt>
      <trkpt lat="49.04768" lon="7.70211">
        <ele>400</ele>
        <time>2020-08-02T12:35:44+02:00</time>
      </trkpt>
      <trkpt lat="49.04771" lon="7.70245">
        <ele>406</ele>
        <time>2020-08-02T12:37:52+02:00</time>
      </trkpt>
      <trkpt lat="49.04759" lon="7.70275">
        <ele>405</ele>
        <time>2020-08-02T12:37:52+02:00</time>
      </trkpt>
      <trkpt lat="49.04738" lon="7.7029">
        <ele>406</ele>
        <time>2020-08-02T12:37:52+02:00</time>
      </trkpt>
      <trkpt lat="49.04716" lon="7.70304">
        <ele>408</ele>
        <time>2020-08-02T12:37:52+02:00</time>
      </trkpt>
      <trkpt lat="49.04695" lon="7.7032">
        <ele>406</ele>
        <time>2020-08-02T12:37:52+02:00</time>
      </trkpt>
      <trkpt lat="49.04681" lon="7.70349">
        <ele>402</ele>
        <time>2020-08-02T12:40:00+02:00</time>
      </trkpt>
      <trkpt lat="49.04661" lon="7.70368">
        <ele>401</ele>
        <time>2020-08-02T12:40:00+02:00</time>
      </trkpt>
      <trkpt lat="49.04638" lon="7.70361">
        <ele>397</ele>
        <time>2020-08-02T12:42:08+02:00</time>
      </trkpt>
      <trkpt lat="49.04635" lon="7.70326">
        <ele>391</ele>
        <time>2020-08-02T12:42:08+02:00</time>
      </trkpt>
      <trkpt lat="49.04634" lon="7.70291">
        <ele>389</ele>
        <time>2020-08-02T12:42:08+02:00</time>
      </trkpt>
      <trkpt lat="49.04635" lon="7.70257">
        <ele>386</ele>
        <time>2020-08-02T12:42:08+02:00</time>
      </trkpt>
      <trkpt lat="49.04629" lon="7.70223">
        <ele>383</ele>
        <time>2020-08-02T12:42:08+02:00</time>
      </trkpt>
      <trkpt lat="49.04625" lon="7.70189">
        <ele>378</ele>
        <time>2020-08-02T12:42:08+02:00</time>
      </trkpt>
      <trkpt lat="49.04622" lon="7.70155">
        <ele>376</ele>
        <time>2020-08-02T12:42:08+02:00</time>
      </trkpt>
      <trkpt lat="49.04614" lon="7.70123">
        <ele>376</ele>
        <time>2020-08-02T12:44:16+02:00</time>
      </trkpt>
      <trkpt lat="49.04601" lon="7.70093">
        <ele>373</ele>
        <time>2020-08-02T12:44:16+02:00</time>
      </trkpt>
      <trkpt lat="49.04584" lon="7.70069">
        <ele>367</ele>
        <time>2020-08-02T12:44:16+02:00</time>
      </trkpt>
      <trkpt lat="49.04561" lon="7.70064">
        <ele>365</ele>
        <time>2020-08-02T12:44:16+02:00</time>
      </trkpt>
      <trkpt lat="49.04538" lon="7.70055">
        <ele>361</ele>
        <time>2020-08-02T12:44:16+02:00</time>
      </trkpt>
      <trkpt lat="49.04515" lon="7.70044">
        <ele>355</ele>
        <time>2020-08-02T12:44:16+02:00</time>
      </trkpt>
      <trkpt lat="49.04493" lon="7.70035">
        <ele>353</ele>
        <time>2020-08-02T12:44:16+02:00</time>
      </trkpt>
      <trkpt lat="49.04471" lon="7.70029">
        <ele>351</ele>
        <time>2020-08-02T12:44:16+02:00</time>
      </trkpt>
      <trkpt lat="49.04448" lon="7.7002">
        <ele>352</ele>
        <time>2020-08-02T12:46:24+02:00</time>
      </trkpt>
      <trkpt lat="49.04426" lon="7.70011">
        <ele>358</ele>
        <time>2020-08-02T12:46:24+02:00</time>
      </trkpt>
      <trkpt lat="49.04402" lon="7.70004">
        <ele>361</ele>
        <time>2020-08-02T12:46:24+02:00</time>
      </trkpt>
      <trkpt lat="49.0438" lon="7.69993">
        <ele>360</ele>
        <time>2020-08-02T12:46:24+02:00</time>
      </trkpt>
      <trkpt lat="49.0436" lon="7.69973">
        <ele>356</ele>
        <time>2020-08-02T12:46:24+02:00</time>
      </trkpt>
      <trkpt lat="49.04341" lon="7.69955">
        <ele>347</ele>
        <time>2020-08-02T12:46:24+02:00</time>
      </trkpt>
      <trkpt lat="49.04322" lon="7.69937">
        <ele>344</ele>
        <time>2020-08-02T12:46:24+02:00</time>
      </trkpt>
      <trkpt lat="49.04305" lon="7.69914">
        <ele>335</ele>
        <time>2020-08-02T12:48:32+02:00</time>
      </trkpt>
      <trkpt lat="49.04286" lon="7.69895">
        <ele>339</ele>
        <time>2020-08-02T12:48:32+02:00</time>
      </trkpt>
      <trkpt lat="49.04263" lon="7.69888">
        <ele>331</ele>
        <time>2020-08-02T12:48:32+02:00</time>
      </trkpt>
      <trkpt lat="49.04241" lon="7.6988">
        <ele>332</ele>
        <time>2020-08-02T12:48:32+02:00</time>
      </trkpt>
      <trkpt lat="49.0422" lon="7.69864">
        <ele>329</ele>
        <time>2020-08-02T12:48:32+02:00</time>
      </trkpt>
      <trkpt lat="49.042" lon="7.69848">
        <ele>326</ele>
        <time>2020-08-02T12:48:32+02:00</time>
      </trkpt>
      <trkpt lat="49.04179" lon="7.69835">
        <ele>318</ele>
        <time>2020-08-02T12:48:32+02:00</time>
      </trkpt>
      <trkpt lat="49.04157" lon="7.69825">
        <ele>316</ele>
        <time>2020-08-02T12:50:40+02:00</time>
      </trkpt>
      <trkpt lat="49.04135" lon="7.69815">
        <ele>312</ele>
        <time>2020-08-02T12:50:40+02:00</time>
      </trkpt>
      <trkpt lat="49.04113" lon="7.69806">
        <ele>312</ele>
        <time>2020-08-02T12:50:40+02:00</time>
      </trkpt>
      <trkpt lat="49.04091" lon="7.69794">
        <ele>311</ele>
        <time>2020-08-02T12:50:40+02:00</time>
      </trkpt>
      <trkpt lat="49.04069" lon="7.69791">
        <ele>310</ele>
        <time>2020-08-02T12:50:40+02:00</time>
      </trkpt>
      <trkpt lat="49.04046" lon="7.69785">
        <ele>313</ele>
        <time>2020-08-02T12:50:40+02:00</time>
      </trkpt>
      <trkpt lat="49.04025" lon="7.69772">
        <ele>316</ele>
        <time>2020-08-02T12:50:40+02:00</time>
      </trkpt>
      <trkpt lat="49.04003" lon="7.69763">
        <ele>320</ele>
        <time>2020-08-02T12:50:40+02:00</time>
      </trkpt>
      <trkpt lat="49.03985" lon="7.69741">
        <ele>316</ele>
        <time>2020-08-02T12:52:48+02:00</time>
      </trkpt>
      <trkpt lat="49.03963" lon="7.69735">
        <ele>315</ele>
        <time>2020-08-02T12:52:48+02:00</time>
      </trkpt>
      <trkpt lat="49.03946" lon="7.69708">
        <ele>309</ele>
        <time>2020-08-02T12:54:56+02:00</time>
      </trkpt>
      <trkpt lat="49.0396" lon="7.69679">
        <ele>309</ele>
        <time>2020-08-02T12:54:56+02:00</time>
      </trkpt>
      <trkpt lat="49.03951" lon="7.69646">
        <ele>319</ele>
        <time>2020-08-02T12:54:56+02:00</time>
      </trkpt>
      <trkpt lat="49.03959" lon="7.69614">
        <ele>333</ele>
        <time>2020-08-02T12:54:56+02:00</time>
      </trkpt>
      <trkpt lat="49.03964" lon="7.69581">
        <ele>326</ele>
        <time>2020-08-02T12:54:56+02:00</time>
      </trkpt>
      <trkpt lat="49.03955" lon="7.69548">
        <ele>328</ele>
        <time>2020-08-02T12:57:04+02:00</time>
      </trkpt>
      <trkpt lat="49.03939" lon="7.69521">
        <ele>329</ele>
        <time>2020-08-02T12:57:04+02:00</time>
      </trkpt>
      <trkpt lat="49.0392" lon="7.69504">
        <ele>337</ele>
        <time>2020-08-02T12:57:04+02:00</time>
      </trkpt>
      <trkpt lat="49.03906" lon="7.69475">
        <ele>340</ele>
        <time>2020-08-02T12:57:04+02:00</time>
      </trkpt>
      <trkpt lat="49.03897" lon="7.69443">
        <ele>339</ele>
        <time>2020-08-02T12:57:04+02:00</time>
      </trkpt>
      <trkpt lat="49.03896" lon="7.69409">
        <ele>333</ele>
        <time>2020-08-02T12:57:04+02:00</time>
      </trkpt>
      <trkpt lat="49.03909" lon="7.69381">
        <ele>335</ele>
        <time>2020-08-02T12:59:12+02:00</time>
      </trkpt>
      <trkpt lat="49.03887" lon="7.6937">
        <ele>338</ele>
        <time>2020-08-02T12:59:12+02:00</time>
      </trkpt>
      <trkpt lat="49.03872" lon="7.69342">
        <ele>337</ele>
        <time>2020-08-02T12:59:12+02:00</time>
      </trkpt>
      <trkpt lat="49.03867" lon="7.69308">
        <ele>337</ele>
        <time>2020-08-02T13:01:20+02:00</time>
      </trkpt>
      <trkpt lat="49.03868" lon="7.69274">
        <ele>337</ele>
        <time>2020-08-02T13:01:20+02:00</time>
      </trkpt>
      <trkpt lat="49.03871" lon="7.69239">
        <ele>338</ele>
        <time>2020-08-02T13:01:20+02:00</time>
      </trkpt>
      <trkpt lat="49.03873" lon="7.69203">
        <ele>338</ele>
        <time>2020-08-02T13:01:20+02:00</time>
      </trkpt>
      <trkpt lat="49.03874" lon="7.69169">
        <ele>340</ele>
        <time>2020-08-02T13:03:28+02:00</time>
      </trkpt>
      <trkpt lat="49.03877" lon="7.69134">
        <ele>346</ele>
        <time>2020-08-02T13:03:28+02:00</time>
      </trkpt>
      <trkpt lat="49.03871" lon="7.69101">
        <ele>347</ele>
        <time>2020-08-02T13:03:28+02:00</time>
      </trkpt>
      <trkpt lat="49.03862" lon="7.69067">
        <ele>343</ele>
        <time>2020-08-02T13:03:28+02:00</time>
      </trkpt>
      <trkpt lat="49.03863" lon="7.69031">
        <ele>341</ele>
        <time>2020-08-02T13:03:28+02:00</time>
      </trkpt>
      <trkpt lat="49.0387" lon="7.68997">
        <ele>340</ele>
        <time>2020-08-02T13:03:28+02:00</time>
      </trkpt>
      <trkpt lat="49.03885" lon="7.68971">
        <ele>342</ele>
        <time>2020-08-02T13:05:36+02:00</time>
      </trkpt>
      <trkpt lat="49.03902" lon="7.68948">
        <ele>335</ele>
        <time>2020-08-02T13:05:36+02:00</time>
      </trkpt>
      <trkpt lat="49.03907" lon="7.68913">
        <ele>334</ele>
        <time>2020-08-02T13:05:36+02:00</time>
      </trkpt>
      <trkpt lat="49.03907" lon="7.68879">
        <ele>333</ele>
        <time>2020-08-02T13:05:36+02:00</time>
      </trkpt>
      <trkpt lat="49.03904" lon="7.68845">
        <ele>346</ele>
        <time>2020-08-02T13:05:36+02:00</time>
      </trkpt>
      <trkpt lat="49.039" lon="7.68811">
        <ele>351</ele>
        <time>2020-08-02T13:07:44+02:00</time>
      </trkpt>
      <trkpt lat="49.03889" lon="7.6878">
        <ele>355</ele>
        <time>2020-08-02T13:07:44+02:00</time>
      </trkpt>
      <trkpt lat="49.03869" lon="7.68763">
        <ele>346</ele>
        <time>2020-08-02T13:07:44+02:00</time>
      </trkpt>
      <trkpt lat="49.03852" lon="7.68741">
        <ele>347</ele>
        <time>2020-08-02T13:07:44+02:00</time>
      </trkpt>
      <trkpt lat="49.03831" lon="7.68725">
        <ele>347</ele>
        <time>2020-08-02T13:07:44+02:00</time>
      </trkpt>
      <trkpt lat="49.03811" lon="7.68708">
        <ele>350</ele>
        <time>2020-08-02T13:07:44+02:00</time>
      </trkpt>
      <trkpt lat="49.0379" lon="7.68691">
        <ele>347</ele>
        <time>2020-08-02T13:09:52+02:00</time>
      </trkpt>
      <trkpt lat="49.0377" lon="7.68667">
        <ele>343</ele>
        <time>2020-08-02T13:09:52+02:00</time>
      </trkpt>
      <trkpt lat="49.03751" lon="7.68648">
        <ele>337</ele>
        <time>2020-08-02T13:09:52+02:00</time>
      </trkpt>
      <trkpt lat="49.03733" lon="7.68625">
        <ele>331</ele>
        <time>2020-08-02T13:09:52+02:00</time>
      </trkpt>
      <trkpt lat="49.03728" lon="7.68592">
        <ele>323</ele>
        <time>2020-08-02T13:09:52+02:00</time>
      </trkpt>
      <trkpt lat="49.03731" lon="7.68558">
        <ele>319</ele>
        <time>2020-08-02T13:09:52+02:00</time>
      </trkpt>
      <trkpt lat="49.03735" lon="7.68523">
        <ele>317</ele>
        <time>2020-08-02T13:12:00+02:00</time>
      </trkpt>
      <trkpt lat="49.03731" lon="7.68488">
        <ele>321</ele>
        <time>2020-08-02T13:12:00+02:00</time>
      </trkpt>
      <trkpt lat="49.03732" lon="7.68452">
        <ele>317</ele>
        <time>2020-08-02T13:12:00+02:00</time>
      </trkpt>
      <trkpt lat="49.03727" lon="7.68418">
        <ele>317</ele>
        <time>2020-08-02T13:12:00+02:00</time>
      </trkpt>
      <trkpt lat="49.03721" lon="7.68384">
        <ele>314</ele>
        <time>2020-08-02T13:12:00+02:00</time>
      </trkpt>
      <trkpt lat="49.03702" lon="7.68359">
        <ele>318</ele>
        <time>2020-08-02T13:12:00+02:00</time>
      </trkpt>
      <trkpt lat="49.03681" lon="7.68345">
        <ele>311</ele>
        <time>2020-08-02T13:12:00+02:00</time>
      </trkpt>
      <trkpt lat="49.03687" lon="7.68311">
        <ele>300</ele>
        <time>2020-08-02T13:16:16+02:00</time>
      </trkpt>
      <trkpt lat="49.03694" lon="7.68278">
        <ele>301</ele>
        <time>2020-08-02T13:16:16+02:00</time>
      </trkpt>
      <trkpt lat="49.03705" lon="7.68247">
        <ele>301</ele>
        <time>2020-08-02T13:16:16+02:00</time>
      </trkpt>
      <trkpt lat="49.03716" lon="7.68216">
        <ele>295</ele>
        <time>2020-08-02T13:16:16+02:00</time>
      </trkpt>
      <trkpt lat="49.03716" lon="7.6818">
        <ele>294</ele>
        <time>2020-08-02T13:16:16+02:00</time>
      </trkpt>
      <trkpt lat="49.03717" lon="7.68146">
        <ele>293</ele>
        <time>2020-08-02T13:16:16+02:00</time>
      </trkpt>
    </trkseg>
  </trk>
</gpx>